GFSNIL_sfc_temp_057.txt.gz
Temp
72 70 70 71 71 69 69 68 69 71 71 71 71 69 69 66 65 65 64 64 63 61
71 70 71 70 71 70 68 70 69 72 70 70 69 68 67 65 65 64 64 63 63 62
71 71 73 72 70 69 69 71 69 71 69 69 68 67 66 64 65 64 63 63 63 62
71 72 75 71 71 71 71 69 70 70 69 69 67 66 65 64 65 64 63 63 63 63
71 71 71 70 71 72 71 71 70 71 70 69 68 66 65 65 66 64 62 63 62 63
69 70 70 68 68 71 71 70 71 70 69 69 68 68 69 66 66 64 64 63 62 62
69 71 71 69 68 67 68 69 69 72 72 72 69 71 69 69 66 65 64 63 61 61
72 72 69 66 67 68 69 69 70 69 68 69 71 71 69 68 64 62 60 60 60 60
73 70 69 67 67 67 68 67 67 66 68 65 66 50 54 62 62 62 60 59 59 60
71 69 67 67 67 66 64 67 67 67 64 59 57 48 51 55 62 61 60 59 59 60
72 69 66 66 65 66 67 66 64 64 63 59 55 49 52 53 62 61 60 60 59 60
71 68 65 64 67 64 64 62 62 63 60 57 55 48 51 54 62 60 59 60 60 61
71 68 69 66 64 63 62 62 63 63 61 55 55 46 48 54 61 59 58 58 58 47
71 67 66 64 63 62 62 62 62 61 60 59 55 52 47 51 62 60 59 58 57 54

GFSNIL_sfc_temp_060.txt.gz
Temp
71 71 69 67 68 70 70 69 69 69 69 69 69 67 67 67 65 64 63 62 61 60
68 69 67 68 69 68 68 69 69 69 68 68 68 68 66 66 64 63 62 62 61 60
69 70 69 68 68 68 68 70 68 67 67 67 69 67 65 64 64 63 62 61 61 60
66 68 69 69 68 68 68 68 68 68 68 69 68 66 64 63 63 63 61 61 61 61
68 69 69 68 68 68 67 68 69 69 70 70 69 65 63 63 64 63 61 61 61 61
68 69 69 68 68 68 68 68 69 70 69 69 67 64 64 64 64 62 62 61 60 61
67 67 67 68 69 69 68 69 69 69 69 68 66 66 67 66 63 62 62 62 61 60
67 67 67 66 66 67 69 70 71 67 66 66 67 69 66 64 63 61 60 60 60 60
68 70 69 67 64 65 66 65 65 64 64 63 66 53 57 62 61 60 59 58 58 59
69 69 68 67 65 64 62 62 61 61 62 62 57 48 50 53 61 59 58 58 57 58
71 69 69 66 64 61 61 62 61 60 60 57 53 48 50 54 60 59 59 58 58 58
70 68 65 63 61 61 63 63 62 61 57 55 54 48 49 56 59 58 58 58 59 59
69 67 65 62 62 63 63 62 61 58 57 54 55 46 46 54 59 57 58 58 56 48
68 66 64 62 63 61 62 62 60 58 56 56 56 51 44 49 60 59 59 58 56 54

GFSNIL_sfc_temp_063.txt.gz
Temp
73 74 72 66 64 65 66 66 67 67 68 68 68 67 66 66 65 65 63 61 60 59
70 67 66 63 66 65 66 67 68 68 68 67 67 66 65 64 65 64 62 61 60 60
66 66 64 64 66 66 66 68 67 67 67 66 67 67 66 65 64 63 61 61 60 59
63 63 65 66 67 67 67 67 68 68 67 67 66 66 66 64 63 62 61 60 60 60
63 65 66 66 66 67 67 68 68 68 67 67 68 66 65 65 64 62 60 60 60 60
65 66 66 67 66 67 67 67 68 68 67 67 67 66 66 65 62 62 61 60 60 60
66 67 67 67 66 67 68 67 67 68 69 69 68 67 64 63 62 61 61 60 60 60
66 67 68 67 67 67 68 67 68 68 69 67 65 66 63 62 61 60 60 60 60 59
65 66 68 68 67 66 66 66 68 66 65 63 64 53 55 60 60 60 59 58 58 58
65 65 64 64 65 65 64 65 65 61 62 60 58 49 51 54 62 59 58 57 56 57
66 65 65 65 64 63 63 62 60 58 58 57 54 47 47 51 59 58 58 57 57 57
67 65 66 65 61 60 60 58 57 57 56 55 53 46 47 56 58 57 57 57 57 58
67 67 66 62 61 60 61 59 58 56 57 51 53 45 47 55 58 58 58 58 56 49
67 66 64 61 61 61 60 59 58 56 56 56 55 50 45 49 58 59 58 58 56 54

GFSNIL_sfc_temp_069.txt.gz
Temp
70 75 76 77 79 79 78 79 80 77 77 77 76 76 75 76 77 76 73 74 71 69
70 72 73 75 75 77 76 82 78 77 77 77 77 76 76 78 76 76 73 71 70 73
71 73 75 76 74 74 75 79 77 77 77 77 77 77 76 77 77 75 75 68 71 72
70 74 76 76 76 76 77 77 78 79 78 77 77 77 76 77 77 74 69 68 69 73
70 73 75 75 76 77 77 79 80 80 79 79 78 77 77 76 77 73 67 68 73 73
69 72 73 74 75 77 78 79 80 80 79 79 78 77 78 77 74 70 69 70 74 73
69 71 73 75 75 76 78 79 79 79 80 79 78 78 78 76 71 68 68 70 74 74
71 71 74 75 75 77 77 78 79 78 79 78 77 77 77 72 68 68 68 72 73 73
72 73 74 74 75 75 75 76 77 77 77 75 76 54 57 65 68 70 72 71 72 73
71 73 74 75 74 72 70 71 72 75 75 74 75 52 53 57 71 73 73 73 71 71
69 71 73 72 70 70 69 70 70 72 74 73 71 50 50 53 73 74 73 73 72 71
67 69 69 68 69 69 67 68 69 72 68 67 59 47 47 61 73 72 71 72 72 71
66 68 69 70 68 67 67 68 68 64 70 59 63 44 47 61 75 70 71 69 68 50
68 67 67 66 65 66 65 66 63 61 61 64 64 54 46 50 73 72 69 66 62 63

GFSNIL_sfc_temp_072.txt.gz
Temp
75 78 80 82 84 86 88 89 86 84 84 83 85 84 83 83 81 80 79 79 80 84
76 75 74 76 79 84 83 88 85 85 84 85 84 82 80 81 80 80 80 80 79 81
77 77 77 75 73 77 80 81 83 83 83 82 81 80 79 81 81 80 81 82 80 79
74 76 78 78 79 81 81 81 82 82 82 82 82 82 80 83 83 80 80 81 79 77
74 73 73 77 78 81 82 83 84 85 84 85 85 83 82 83 85 81 79 79 78 77
71 70 70 74 77 80 82 83 85 86 86 86 86 84 84 85 84 82 81 79 78 78
70 69 68 74 77 79 82 84 85 86 88 88 88 86 86 85 82 82 81 79 77 80
69 69 68 73 77 79 81 84 86 87 88 88 87 88 85 83 81 80 78 76 78 79
69 66 66 71 77 79 81 83 86 86 87 84 87 57 60 75 80 78 76 74 74 80
67 63 65 71 77 79 80 82 83 84 84 83 84 54 55 59 80 78 77 74 76 79
63 61 63 71 78 79 80 80 81 82 83 81 79 51 52 56 78 76 76 79 78 77
60 60 61 72 78 79 79 78 80 82 81 77 70 49 51 64 77 76 78 79 79 77
57 59 60 71 73 74 74 75 79 80 80 68 71 47 51 65 79 77 79 77 76 52
56 60 65 68 69 69 71 72 72 72 73 73 68 55 49 49 80 80 79 78 75 76

GFSNIL_sfc_temp_078.txt.gz
Temp
72 70 70 70 71 72 73 74 75 76 76 76 76 74 75 74 73 75 78 76 75 75
71 71 72 71 71 72 72 76 76 76 74 76 77 77 77 77 77 76 76 77 76 75
72 73 72 72 71 72 72 74 74 74 74 76 78 78 78 76 78 77 78 77 75 74
72 73 72 71 72 72 72 73 75 75 75 75 77 78 77 76 77 77 77 76 74 74
72 72 70 70 71 72 71 73 74 75 76 76 77 78 78 78 79 78 75 75 75 75
69 69 68 69 70 71 72 72 72 74 76 77 78 77 79 80 79 78 76 76 76 76
67 67 67 68 69 69 71 72 72 72 74 77 79 79 80 80 78 77 77 77 77 76
67 67 66 66 67 68 69 71 72 72 73 76 78 82 78 79 77 76 77 77 77 76
68 67 65 64 65 66 67 69 70 70 72 73 80 68 63 73 77 77 77 76 76 76
68 67 66 66 65 64 64 67 68 69 70 72 75 62 56 61 78 77 77 75 74 75
69 67 66 64 61 60 63 65 67 68 70 71 76 60 52 59 78 76 76 75 75 73
67 64 63 60 58 58 60 63 66 68 69 70 74 52 52 61 76 74 75 76 75 74
64 61 59 58 57 58 61 63 66 67 69 68 73 48 50 67 75 73 74 74 72 59
61 59 57 54 54 56 59 62 63 64 67 70 71 59 50 59 74 75 74 73 70 67

GFSNIL_sfc_temp_084.txt.gz
Temp
61 59 60 61 61 60 62 63 66 67 69 70 71 71 71 69 68 69 70 71 70 71
61 60 60 61 61 62 63 67 68 69 66 69 69 69 69 68 69 69 69 71 71 71
61 62 61 60 61 62 63 65 66 68 67 67 67 69 68 68 69 69 68 69 69 69
60 61 61 60 60 61 62 64 65 66 67 67 67 67 65 66 68 69 69 69 69 69
59 59 58 59 60 60 60 62 63 65 65 66 66 66 66 66 69 69 69 69 68 70
58 58 58 58 58 59 60 60 61 62 63 64 66 67 66 67 68 69 69 71 69 71
59 58 58 58 58 58 59 59 59 60 62 64 64 66 67 68 67 68 69 70 72 72
60 59 58 57 57 58 58 59 60 60 61 61 62 66 64 66 66 66 67 68 71 73
61 60 58 58 56 56 57 57 58 58 59 59 64 57 54 57 64 66 65 65 68 71
58 58 57 58 57 56 55 55 54 56 56 57 59 53 51 53 60 61 62 63 64 68
59 59 59 58 58 57 56 55 55 55 55 55 58 52 50 51 56 59 61 63 64 66
60 59 58 57 58 57 52 50 51 53 54 53 55 50 49 50 58 59 60 64 65 67
57 57 58 58 57 55 54 55 55 55 53 53 53 50 48 49 58 58 60 63 65 56
56 54 52 53 54 52 53 53 51 53 54 52 52 53 49 47 56 59 60 62 64 64

GFSNIL_sfc_temp_087.txt.gz
Temp
59 58 58 58 58 58 58 59 61 63 64 68 69 68 69 69 68 66 68 68 68 68
58 58 58 59 59 59 59 62 63 64 64 65 65 67 67 67 67 67 67 69 70 69
58 59 59 58 59 59 60 61 62 63 64 65 65 65 66 64 66 66 67 67 67 68
58 59 59 58 59 60 60 61 62 63 63 63 64 64 64 63 64 66 66 67 68 67
58 58 57 58 58 58 59 60 61 62 63 63 64 63 63 63 64 65 64 67 67 67
58 56 56 57 57 57 58 58 60 61 61 61 61 61 62 63 64 66 65 65 66 68
57 58 58 59 58 58 58 58 57 58 60 61 61 62 61 61 60 62 63 65 65 66
59 59 60 57 57 58 56 59 58 58 58 58 59 62 59 59 58 58 61 63 63 65
57 57 55 57 58 57 57 56 56 56 57 56 61 56 53 56 55 57 57 58 61 62
56 57 58 56 55 55 55 55 54 55 54 54 54 51 50 52 55 54 53 54 58 60
58 56 55 55 56 54 52 52 55 55 55 55 55 50 48 49 51 52 52 55 57 59
56 55 54 54 55 56 57 55 56 55 55 52 53 49 48 49 53 53 53 57 58 59
54 53 52 53 53 54 55 56 56 56 56 54 54 47 47 47 54 51 54 55 57 53
53 52 51 51 53 51 50 54 54 54 55 51 49 48 46 47 51 53 53 54 56 59

GFSNIL_sfc_temp_093.txt.gz
Temp
70 69 73 73 76 77 77 77 75 75 76 77 77 77 76 75 73 71 70 69 66 64
71 71 73 72 72 75 74 76 75 75 75 75 76 76 75 77 75 74 72 71 70 67
72 72 72 71 70 72 72 73 74 74 74 75 75 76 75 75 75 74 75 74 71 69
71 71 71 70 71 72 72 72 74 74 74 74 74 74 73 73 74 74 73 73 73 72
65 68 69 70 72 73 73 74 75 74 74 75 75 73 73 73 75 74 73 73 73 74
64 65 65 67 68 70 73 73 74 74 74 74 74 74 74 75 74 74 73 73 72 72
66 64 67 68 67 66 70 73 73 73 74 75 75 74 74 73 72 72 72 71 71 72
68 67 67 66 66 68 68 72 74 73 73 73 73 75 73 73 71 70 70 70 72 72
64 64 66 66 67 68 70 69 71 72 72 71 74 59 56 66 71 71 70 68 70 70
67 66 66 66 64 66 66 68 68 69 69 70 70 51 50 53 70 69 68 68 68 68
65 66 68 66 64 63 65 65 66 67 67 67 69 51 48 50 68 68 68 68 67 66
64 64 65 65 65 64 63 63 64 65 66 65 67 50 48 52 67 67 67 68 68 67
62 62 62 64 64 64 64 64 66 65 65 61 65 51 47 52 70 66 68 67 66 52
59 59 60 61 63 63 63 64 63 64 65 65 63 63 46 45 66 69 68 69 69 69

GFSNIL_sfc_temp_096.txt.gz
Temp
77 82 83 83 84 86 88 86 83 82 83 82 83 82 82 83 82 81 80 78 78 82
76 76 79 80 80 84 84 87 83 82 81 82 82 82 81 82 81 80 79 78 77 78
76 76 76 77 76 80 81 82 81 80 80 80 81 82 80 82 81 78 80 80 77 76
78 78 78 78 78 79 79 79 80 81 81 81 80 80 79 79 81 78 76 77 78 76
75 76 75 76 78 79 78 80 81 81 81 81 81 80 79 79 81 78 76 75 75 76
69 73 75 75 77 78 79 79 81 81 80 80 80 80 79 80 79 78 77 77 77 77
65 66 71 74 74 75 76 77 78 80 81 81 81 80 80 79 78 78 78 77 76 77
60 62 68 66 64 69 67 73 76 74 76 78 80 81 78 78 77 76 75 75 76 76
64 65 68 70 69 67 70 70 70 75 78 77 79 59 59 70 76 75 74 73 75 76
69 67 69 72 71 70 68 69 70 71 76 76 76 53 54 56 76 75 74 74 74 75
68 68 70 71 71 70 70 69 71 73 73 75 77 51 51 53 74 74 75 75 74 73
67 67 68 69 69 71 69 69 70 72 73 73 75 50 49 55 72 73 73 75 74 74
65 66 65 67 68 70 70 69 73 71 72 67 72 49 47 55 75 71 74 73 73 55
61 62 63 64 66 67 68 70 69 71 71 71 69 67 46 46 70 76 74 74 75 76

GFSNIL_sfc_temp_102.txt.gz
Temp
75 75 75 74 75 76 77 78 78 76 77 76 77 77 77 77 75 75 74 73 73 76
73 73 73 72 72 74 74 78 77 78 75 71 63 69 75 75 74 72 73 71 73 74
72 72 72 71 71 72 73 75 76 77 77 72 71 71 74 73 72 70 69 71 71 72
71 72 71 70 69 69 67 72 75 76 77 76 75 75 70 70 68 67 66 69 70 72
71 71 69 68 67 65 64 63 61 66 74 77 75 70 66 66 69 69 69 71 71 71
69 69 67 67 66 66 64 61 60 59 60 63 75 71 68 69 67 64 72 73 72 71
66 66 67 67 66 65 64 60 58 58 60 59 73 75 73 73 72 73 74 73 72 72
66 66 66 66 66 65 63 61 60 59 59 60 60 78 75 75 73 72 72 71 73 71
67 67 65 64 64 64 61 61 60 59 59 59 59 52 54 60 71 72 71 69 70 64
66 66 65 65 65 64 61 59 57 59 59 60 60 52 50 51 69 69 69 67 67 68
65 64 63 62 62 61 61 59 59 59 60 60 62 49 50 48 58 67 68 67 67 66
60 60 60 60 58 59 60 59 59 62 61 59 62 50 53 56 59 59 66 69 69 68
58 57 57 57 57 58 59 58 60 61 63 59 63 49 50 57 60 57 63 67 67 58
56 55 57 56 56 56 57 58 56 60 61 62 62 57 48 50 61 60 64 68 68 69

GFSNIL_sfc_temp_105.txt.gz
Temp
65 63 63 63 66 68 70 71 71 67 68 67 66 68 66 63 61 65 69 67 69 69
63 62 62 63 64 65 67 70 70 70 68 68 70 65 65 63 62 66 65 70 69 69
63 64 63 61 61 61 60 61 62 61 61 64 62 63 64 64 65 64 67 70 69 65
62 63 62 61 61 60 59 59 60 61 60 58 59 61 58 59 61 64 67 65 63 62
61 61 60 60 60 60 59 58 58 60 60 61 61 58 58 63 64 67 61 61 59 61
59 58 58 58 59 59 59 58 57 59 59 60 60 59 57 60 61 62 61 61 62 62
58 58 57 57 57 58 58 58 56 57 58 59 59 60 60 61 58 60 64 63 63 65
58 58 57 56 56 56 57 58 57 57 57 57 58 61 56 57 57 57 61 60 63 65
59 58 56 56 55 55 54 56 55 55 57 56 59 54 51 54 56 59 62 63 65 66
59 58 58 57 56 54 53 53 53 54 55 56 57 52 51 51 55 58 59 58 58 60
58 58 57 55 53 53 52 51 54 54 56 55 58 51 50 49 55 58 60 59 58 58
58 57 56 54 54 57 56 49 50 54 55 54 56 49 47 48 56 56 60 62 61 61
55 54 55 55 54 55 54 50 51 51 52 53 56 48 46 49 58 54 56 59 60 56
51 51 52 53 54 52 51 52 49 50 49 52 56 56 47 47 58 56 55 56 58 59

GFSNIL_sfc_temp_108.txt.gz
Temp
61 59 59 59 59 59 60 61 61 62 63 65 67 66 64 63 64 63 62 64 62 63
61 61 60 59 59 59 60 63 61 60 59 62 64 64 64 64 64 63 62 63 63 63
61 61 60 59 60 59 58 58 58 58 57 58 61 62 61 60 61 61 61 61 62 61
60 60 60 58 59 59 58 58 58 58 58 57 57 59 58 57 59 59 60 61 63 64
60 60 59 59 59 58 57 57 57 57 58 58 58 56 56 57 60 59 58 60 62 63
58 57 57 57 57 56 57 56 56 57 57 57 57 57 56 57 58 57 58 62 62 61
57 57 57 55 55 56 56 55 56 56 57 58 58 58 58 58 56 56 57 57 61 61
55 55 54 54 54 54 54 55 55 55 55 54 56 59 57 55 54 53 54 56 58 59
57 57 55 54 55 53 52 53 53 53 54 53 56 53 52 53 54 55 55 56 57 60
56 57 56 56 55 52 51 51 52 52 52 52 53 51 50 51 54 55 55 56 55 57
55 55 55 53 52 51 50 49 50 50 51 51 54 50 49 49 53 55 55 56 56 58
54 53 53 54 54 53 51 48 46 52 50 50 51 49 48 49 54 55 55 58 58 57
49 48 48 50 52 53 55 55 54 52 51 50 50 48 47 48 53 54 54 57 56 51
47 47 47 47 48 50 51 52 51 50 48 48 49 50 47 45 52 55 54 55 57 59

GFSNIL_sfc_temp_111.txt.gz
Temp
59 59 58 58 57 58 58 59 59 59 59 60 61 61 62 61 61 60 61 62 64 62
59 58 58 58 57 58 58 60 59 59 58 59 59 59 59 59 62 63 63 63 64 64
59 59 59 58 56 57 57 58 58 57 56 56 57 57 56 55 57 58 60 61 59 59
59 59 58 57 57 58 56 56 56 57 56 56 55 55 54 54 56 56 56 57 59 59
57 58 57 56 58 57 56 56 57 57 56 57 56 55 54 54 56 55 56 57 57 58
55 54 55 57 58 55 55 55 55 56 56 56 56 55 54 55 55 55 55 56 58 59
54 55 54 55 54 55 56 55 54 54 56 57 56 56 56 56 54 54 56 56 57 57
54 54 53 52 53 54 54 56 55 54 54 55 56 58 54 54 54 54 53 55 56 56
53 53 52 53 54 53 53 54 52 53 54 53 55 52 52 53 53 54 53 53 55 55
53 53 53 53 52 50 49 50 49 50 51 51 51 49 49 51 52 52 53 54 54 56
52 52 53 53 53 53 53 50 53 53 52 50 53 49 48 49 50 51 53 54 55 55
50 49 48 47 47 49 50 51 49 54 54 50 51 48 47 47 50 51 52 55 56 56
47 46 46 47 47 49 49 50 52 52 53 52 50 48 47 47 49 50 53 56 56 52
46 45 46 46 46 46 46 47 48 48 48 50 50 49 45 45 48 51 53 54 55 56

GFSNIL_sfc_temp_114.txt.gz
Temp
59 59 59 60 59 60 60 61 61 60 60 62 63 62 62 62 62 63 62 62 62 63
58 58 59 59 59 60 60 62 61 61 59 60 61 61 61 59 60 62 63 64 63 62
59 59 59 58 58 59 60 61 61 60 59 59 59 59 59 58 59 59 59 61 61 62
58 58 58 58 58 59 60 60 60 60 60 59 58 58 57 57 58 59 58 59 59 60
57 57 57 57 57 57 57 59 60 60 60 59 59 58 57 57 59 59 58 59 58 59
55 55 55 55 56 57 57 57 58 59 59 59 59 59 57 58 59 58 58 59 59 59
53 53 54 54 54 55 56 56 57 57 59 59 59 59 59 58 57 57 58 58 58 59
52 53 53 53 53 53 53 55 55 56 57 57 58 60 58 58 57 57 56 57 58 59
52 53 53 52 53 53 53 54 54 54 55 55 57 55 53 55 56 56 56 55 56 57
52 52 52 52 52 51 51 52 52 53 53 53 53 50 49 51 55 55 55 55 55 56
50 50 50 50 49 48 49 49 50 51 52 52 54 49 47 48 54 54 53 54 55 55
49 48 47 46 46 46 47 47 48 50 51 51 52 48 46 47 52 51 52 54 55 56
46 45 45 45 46 47 47 47 48 48 49 49 50 48 46 48 52 51 51 53 55 51
46 45 45 45 45 44 45 46 45 45 47 48 48 49 45 44 50 50 50 52 55 57

GFSNIL_sfc_temp_117.txt.gz
Temp
74 77 76 75 78 77 77 76 74 73 73 73 73 73 72 73 73 71 72 70 70 72
73 72 74 73 73 76 75 78 74 73 72 72 72 72 71 73 70 70 71 71 71 72
71 71 72 72 71 72 73 74 75 72 72 71 71 71 70 71 71 69 71 72 70 70
70 71 70 70 70 71 71 71 72 73 72 71 70 70 69 69 70 69 69 69 69 69
68 69 68 68 70 70 68 70 70 71 71 71 71 70 68 68 71 69 68 69 69 69
66 66 65 66 66 67 68 68 69 70 69 70 70 70 69 68 69 69 69 70 69 68
64 63 64 64 64 65 66 65 66 66 67 68 69 69 69 69 68 68 69 68 69 69
62 63 63 63 63 63 63 64 65 65 66 66 67 68 68 67 67 66 66 67 68 68
62 62 61 61 61 61 61 62 62 62 63 63 66 58 54 58 65 66 65 65 66 67
60 60 60 60 59 58 57 58 58 58 59 59 60 52 50 51 61 62 63 63 64 66
59 58 58 57 56 55 56 55 55 56 56 57 58 50 48 48 56 59 61 60 61 62
56 55 54 53 53 54 53 53 53 54 52 51 52 48 46 49 57 57 57 59 58 57
53 52 51 51 51 52 49 48 51 48 49 50 50 48 45 48 56 57 58 57 58 52
51 50 49 48 48 47 46 45 44 46 48 49 50 52 45 44 54 52 51 52 55 61

GFSNIL_sfc_temp_123.txt.gz
Temp
84 85 86 83 87 87 88 87 84 81 82 81 82 81 80 80 79 78 78 76 76 79
82 83 85 83 84 87 86 88 86 83 81 81 81 81 79 79 79 78 77 76 76 77
83 83 83 82 80 82 82 84 84 83 82 81 81 80 78 78 78 76 78 79 75 76
82 82 81 80 80 80 80 80 81 81 81 81 80 79 77 77 78 77 75 75 75 75
78 78 77 77 77 78 78 79 79 80 80 80 81 80 77 75 77 76 75 75 74 74
75 75 74 74 74 75 75 76 77 77 77 78 79 79 79 79 78 75 74 74 74 74
74 73 73 73 73 73 74 73 74 74 75 76 76 77 77 77 76 76 77 74 74 74
73 74 73 72 72 72 71 72 73 72 73 73 74 76 74 74 74 73 72 73 74 74
73 73 71 71 70 70 70 70 70 70 70 70 73 61 54 58 67 67 68 67 70 71
72 71 71 71 70 69 68 68 66 67 67 67 68 56 52 51 64 64 64 65 65 67
71 70 70 69 67 66 66 65 64 65 65 65 66 51 47 48 58 59 60 59 60 60
69 67 66 64 63 63 62 60 59 59 58 57 57 48 44 46 53 54 56 59 59 57
66 64 62 60 57 56 55 54 54 52 52 49 48 46 44 44 45 45 47 50 52 51
62 58 55 52 51 48 44 43 42 42 42 44 44 45 44 43 44 44 45 47 50 57